Skip Page Navigation
NASA JPL Caltech
NASA Logo - Jet Propulsion Laboratory + View the NASA Portal
+ Center for Near-Earth Object Studies
JPL Home Earth Solar System Stars & Galaxies Technology
JPL Solar System Dynamics
BODIES ORBITS EPHEMERIDES TOOLS PHYSICAL DATA DISCOVERY FAQ SITE MAP
JPL Small-Body Database Browser
Search: [ help ]  
4332 Milton (1983 RC)
Classification: Main-belt Asteroid          SPK-ID: 2004332
Ephemeris | Orbit Diagram | Orbital Elements | Mission Design | Physical Parameters | Discovery Circumstances | Close-Approach Data ]

[ show orbit diagram ]
Orbital Elements at Epoch 2459200.5 (2020-Dec-17.0) TDB
Reference: JPL 39 (heliocentric ecliptic J2000)
 Element Value Uncertainty (1-sigma)   Units 
e .3145419800628494 2.8373e-08  
a 2.585893002851742 1.0579e-08 au
q 1.772521097504088 7.7551e-08 au
i 19.16939372270334 9.6055e-07 deg
node 165.9459575425763 3.2306e-06 deg
peri 198.2311361574821 2.6436e-06 deg
M 345.2620368747658 5.3846e-06 deg
tp 2459262.679785305972
(2021-Feb-17.17978531)
2.3021e-05 TDB
period 1518.847789205199
4.16
9.3205e-06
2.552e-08
d
yr
n .2370217756898372 1.4545e-09 deg/d
Q 3.399264908199397 1.3907e-08 au
  Orbit Determination Parameters
   # obs. used (total)      2428  
   data-arc span      31889 days (87.31 yr)  
   first obs. used      1933-09-16  
   last obs. used      2021-01-06  
   planetary ephem.      DE441  
   SB-pert. ephem.      SB441-N16  
   condition code      0  
   norm. resid. RMS      .43176  
   source      ORB  
   producer      Otto Matic  
   solution date      2021-Apr-12 16:13:01  

Additional Information
 Earth MOID = .774794 au 
 Jupiter MOID = 2.07266 au 
 T_jup = 3.276 
[ show covariance matrix ]

Ephemeris | Orbit Diagram | Orbital Elements | Mission Design | Physical Parameters | Discovery Circumstances | Close-Approach Data ]

Physical Parameter Table
Parameter Symbol Value Units Sigma Reference Notes
absolute magnitude H 12.86   n/a E2020-QM5  
diameter diameter 11.54 km 0.6 IRAS-A-FPA-3-RDR-IMPS-V6.0 IRAS observations used: 5
rotation period rot_per 3.295 h n/a LCDB (Rev. 2020-October); Warner et al., 2009 Published Reference List:
[Oey, J. (2009) Minor Planet Bull. 36, 162-165.]
[Kabas, A. (2016) Icarus 271, 279-282.]
geometric albedo albedo 0.2306   0.028 IRAS-A-FPA-3-RDR-IMPS-V6.0 IRAS observations used: 5
SMASSII spectral type spec_B Xe   n/a EAR-A-5-DDR-TAXONOMY-V4.0 based on a high-resolution spectrum by Xu et al. (1995) or Bus and Binzel (2002)

4332 Milton (1983 RC)          Discovered 1983-Sep-05 by Shoemaker, C. S. at Palomar
Reference: DISCOVERY.DBLast Updated: 2003-08-29

[ show close-approach data ]
Alternate Designations
 1983 RC = 1933 SH1 = 1989 ET4 
Ephemeris | Orbit Diagram | Orbital Elements | Mission Design | Physical Parameters | Discovery Circumstances | Close-Approach Data ]
ABOUT SSD CREDITS/AWARDS PRIVACY/COPYRIGHT GLOSSARY LINKS
FirstGov 2021-May-06 17:22 UT
(server date/time)  
NASA Home Page
Site Manager:   Ryan S. Park
Webmaster  Alan B. Chamberlin